Hourly Data Report for March 10, 2018

MIRAMICHI RCS
NEW BRUNSWICK

47°00'34.000" N
65°27'54.000" W
33.00 m
8100989
71744
ACQ

Download Data

Hourly Data (March 2018)
Hourly Data Report for March 10, 2018
TIME
LST
Temp Definition
°C
Dew Point Definition
°C
Rel Hum Definition
%
Precip. Amount Definition
mm

Wind Dir Definition
10's deg

Wind Spd Definition
km/h
Visibility Definition
km
Stn Press Definition
kPa
Hmdx Definition


Wind Chill Definition


Weather Definition


00:00 -1.6 -2.9 91 0.5 3 25   98.86   -8 LegendNANA
01:00 -1.4 -2.5 92 0.3 2 23   98.71   -7 LegendNANA
02:00 -1.3 -2.5 92 0.6 2 21   98.53   -7 LegendNANA
03:00 -1.2 -2.1 94 0.2 2 18   98.42   -6 LegendNANA
04:00 -1.0 -1.9 94 0.2 4 31   98.44   -8 LegendNANA
05:00 -1.2 -2.0 95 0.0 5 27   98.55   -8 LegendNANA
06:00 -1.3 -2.0 94 0.0 5 14   98.64   -6 LegendNANA
07:00 -1.5 -2.3 94 0.0 5 12   98.74   -6 LegendNANA
08:00 -1.4 -2.2 94 0.0 6 12   98.80   -5 LegendNANA
09:00 -1.2 -2.1 93 0.0 6 11   98.85   -5 LegendNANA
10:00 -0.8 -1.7 93 0.0 6 10   98.93   -4 LegendNANA
11:00 -0.4 -1.5 93 0.9 6 25   98.95   -6 LegendNANA
12:00 -0.3 -1.3 93 0.6 6 24   99.00   -6 LegendNANA
13:00 -0.1 -1.0 93 0.0 6 21   99.04   -6 LegendNANA
14:00 -0.1 -1.1 93 0.2 8 22   99.08   -6 LegendNANA
15:00 0.0 -0.8 94 0.0 6 19   99.15   -5 LegendNANA
16:00 -0.1 -0.9 94 0.2 6 20   99.20   -5 LegendNANA
17:00 -0.4 -1.2 95 0.2 5 20   99.27   -6 LegendNANA
18:00 -0.6 -1.2 96 0.2 6 22   99.35   -6 LegendNANA
19:00 -0.6 -1.3 96 0.2 5 23   99.44   -6 LegendNANA
20:00 -0.6 -1.2 96 0.3 5 22   99.51   -6 LegendNANA
21:00 -0.8 -1.3 96 0.2 6 21   99.56   -6 LegendNANA
22:00 -0.7 -1.3 96 0.2 5 17   99.63   -6 LegendNANA
23:00 -0.8 -1.4 96 0.5 3 11   99.67   -5 LegendNANA

Notes on Data Quality.

Legend

  • E = Estimated
  • M = Missing
  • NA = Not Available*
  • [empty] = Indicates an unobserved value
Date modified: